Time,TemperatureF,DewpointF,PressureIn,WindDirection,WindDirectionDegrees,WindSpeedMPH,WindSpeedGustMPH,Humidity,HourlyPrecipIn,Conditions,Clouds,dailyrainin,SoftwareType,DateUTC
2013-06-18 00:01:00,82.0,77.8,30.01,SSE,155,0.0,3.0,87,0.00,,---,0.00,VWS V14.01,2013-06-18 04:01:00,
2013-06-18 00:02:00,82.0,77.8,30.01,SSE,155,2.0,3.0,87,0.00,,---,0.00,VWS V14.01,2013-06-18 04:02:00,
2013-06-18 00:04:00,82.0,77.8,30.00,SSE,155,0.0,1.0,87,0.00,,---,0.00,VWS V14.01,2013-06-18 04:04:00,
2013-06-18 00:06:00,81.8,77.6,30.00,SSE,155,0.0,1.0,87,0.00,,---,0.00,VWS V14.01,2013-06-18 04:06:00,
2013-06-18 00:11:00,81.8,77.6,30.00,SSE,155,0.0,1.0,87,0.00,,---,0.00,VWS V14.01,2013-06-18 04:11:00,
2013-06-18 00:16:00,81.8,77.6,30.00,SSE,155,0.0,2.0,87,0.00,,---,0.00,VWS V14.01,2013-06-18 04:16:00,
2013-06-18 00:21:00,81.8,77.6,30.00,SSE,155,0.0,3.0,87,0.00,,---,0.00,VWS V14.01,2013-06-18 04:21:00,
2013-06-18 00:26:00,81.8,77.6,30.00,SSE,155,0.0,3.0,87,0.00,,---,0.00,VWS V14.01,2013-06-18 04:26:00,
2013-06-18 00:31:00,81.6,77.4,30.00,SSE,155,0.0,3.0,87,0.00,,---,0.00,VWS V14.01,2013-06-18 04:31:00,
2013-06-18 00:36:00,81.6,77.4,29.99,SSE,155,0.0,1.0,87,0.00,,---,0.00,VWS V14.01,2013-06-18 04:36:00,
2013-06-18 00:41:00,81.6,77.4,29.99,SSE,155,0.0,1.0,87,0.00,,---,0.00,VWS V14.01,2013-06-18 04:41:00,
2013-06-18 00:46:00,81.4,77.5,29.99,SSE,155,0.0,1.0,88,0.00,,---,0.00,VWS V14.01,2013-06-18 04:46:00,
2013-06-18 00:51:00,81.4,77.5,29.99,SSE,155,0.0,1.0,88,0.00,,---,0.00,VWS V14.01,2013-06-18 04:51:00,
2013-06-18 00:56:00,81.4,77.5,29.99,SSE,155,0.0,1.0,88,0.00,,---,0.00,VWS V14.01,2013-06-18 04:56:00,
2013-06-18 01:01:00,81.2,77.3,29.99,SSE,155,0.0,2.0,88,0.00,,---,0.00,VWS V14.01,2013-06-18 05:01:00,
2013-06-18 01:06:00,81.2,77.7,29.99,SSE,155,0.0,0.0,89,0.00,,---,0.00,VWS V14.01,2013-06-18 05:06:00,
2013-06-18 01:11:00,81.2,77.7,29.99,SSE,155,0.0,0.0,89,0.00,,---,0.00,VWS V14.01,2013-06-18 05:11:00,
2013-06-18 01:16:00,81.1,77.6,29.99,SSE,155,0.0,0.0,89,0.00,,---,0.00,VWS V14.01,2013-06-18 05:16:00,
2013-06-18 01:21:00,81.1,77.6,29.99,SSE,155,0.0,0.0,89,0.00,,---,0.00,VWS V14.01,2013-06-18 05:21:00,
2013-06-18 01:26:00,81.1,77.6,29.99,SSE,155,0.0,0.0,89,0.00,,---,0.00,VWS V14.01,2013-06-18 05:26:00,
2013-06-18 01:31:00,80.9,77.4,29.99,SSE,155,0.0,0.0,89,0.00,,---,0.00,VWS V14.01,2013-06-18 05:31:00,
2013-06-18 01:36:00,80.7,77.5,29.99,SSE,155,0.0,0.0,90,0.00,,---,0.00,VWS V14.01,2013-06-18 05:36:00,
2013-06-18 01:42:00,80.7,77.5,29.99,SSE,155,0.0,0.0,90,0.00,,---,0.00,VWS V14.01,2013-06-18 05:42:00,
2013-06-18 01:47:00,80.5,77.3,29.99,SSE,155,0.0,0.0,90,0.00,,---,0.00,VWS V14.01,2013-06-18 05:47:00,
2013-06-18 01:52:00,80.5,77.3,29.99,SSE,155,0.0,0.0,90,0.00,,---,0.00,VWS V14.01,2013-06-18 05:52:00,
2013-06-18 01:57:00,80.3,77.1,29.99,SSE,155,0.0,0.0,90,0.00,,---,0.00,VWS V14.01,2013-06-18 05:57:00,
2013-06-18 02:02:00,80.1,77.2,29.99,SSE,155,0.0,0.0,91,0.00,,---,0.00,VWS V14.01,2013-06-18 06:02:00,
2013-06-18 02:07:00,80.1,77.2,29.98,SSE,155,0.0,0.0,91,0.00,,---,0.00,VWS V14.01,2013-06-18 06:07:00,
2013-06-18 02:12:00,79.9,77.0,29.98,SSE,155,0.0,0.0,91,0.00,,---,0.00,VWS V14.01,2013-06-18 06:12:00,
2013-06-18 02:17:00,79.9,77.0,29.98,SSE,155,0.0,0.0,91,0.00,,---,0.00,VWS V14.01,2013-06-18 06:17:00,
2013-06-18 02:22:00,79.8,76.9,29.97,SSE,155,0.0,0.0,91,0.00,,---,0.00,VWS V14.01,2013-06-18 06:22:00,
2013-06-18 02:27:00,79.8,77.3,29.97,SSE,155,0.0,0.0,92,0.00,,---,0.00,VWS V14.01,2013-06-18 06:27:00,
2013-06-18 02:32:00,79.8,77.6,29.97,SSE,155,0.0,0.0,93,0.00,,---,0.00,VWS V14.01,2013-06-18 06:32:00,
2013-06-18 02:37:00,79.6,77.4,29.97,SSE,155,0.0,0.0,93,0.00,,---,0.00,VWS V14.01,2013-06-18 06:37:00,
2013-06-18 02:42:00,79.4,77.2,29.97,SSE,155,0.0,0.0,93,0.00,,---,0.00,VWS V14.01,2013-06-18 06:42:00,
2013-06-18 02:47:00,79.4,77.2,29.97,SSE,155,0.0,0.0,93,0.00,,---,0.00,VWS V14.01,2013-06-18 06:47:00,
2013-06-18 02:52:00,79.2,77.0,29.97,SSE,155,0.0,0.0,93,0.00,,---,0.00,VWS V14.01,2013-06-18 06:52:00,
2013-06-18 02:57:00,79.2,77.3,29.97,SSE,155,0.0,0.0,94,0.00,,---,0.00,VWS V14.01,2013-06-18 06:57:00,
2013-06-18 03:02:00,79.0,77.1,29.97,SSE,155,0.0,0.0,94,0.00,,---,0.00,VWS V14.01,2013-06-18 07:02:00,
2013-06-18 03:07:00,79.0,77.1,29.97,SSE,155,0.0,0.0,94,0.00,,---,0.00,VWS V14.01,2013-06-18 07:07:00,
2013-06-18 03:13:00,79.0,77.4,29.97,SSE,155,0.0,0.0,95,0.00,,---,0.00,VWS V14.01,2013-06-18 07:13:00,
2013-06-18 03:18:00,78.8,77.2,29.97,SSE,155,0.0,0.0,95,0.00,,---,0.00,VWS V14.01,2013-06-18 07:18:00,
2013-06-18 03:23:00,78.8,77.6,29.97,SSE,155,0.0,0.0,96,0.00,,---,0.00,VWS V14.01,2013-06-18 07:23:00,
2013-06-18 03:28:00,78.8,77.6,29.97,SSE,155,0.0,0.0,96,0.00,,---,0.00,VWS V14.01,2013-06-18 07:28:00,
2013-06-18 03:33:00,78.6,77.4,29.97,SSE,155,0.0,0.0,96,0.00,,---,0.00,VWS V14.01,2013-06-18 07:33:00,
2013-06-18 03:38:00,78.6,77.4,29.97,SSE,155,0.0,0.0,96,0.00,,---,0.00,VWS V14.01,2013-06-18 07:38:00,
2013-06-18 03:43:00,78.6,77.4,29.97,SSE,155,0.0,0.0,96,0.00,,---,0.00,VWS V14.01,2013-06-18 07:43:00,
2013-06-18 03:48:00,78.5,77.6,29.97,SSE,155,0.0,0.0,97,0.00,,---,0.00,VWS V14.01,2013-06-18 07:48:00,
2013-06-18 03:53:00,78.5,77.6,29.97,SSE,155,0.0,0.0,97,0.00,,---,0.00,VWS V14.01,2013-06-18 07:53:00,
2013-06-18 03:58:00,78.3,77.4,29.97,SSE,155,0.0,0.0,97,0.00,,---,0.00,VWS V14.01,2013-06-18 07:58:00,
2013-06-18 04:03:00,78.3,77.4,29.96,SSE,155,0.0,0.0,97,0.00,,---,0.00,VWS V14.01,2013-06-18 08:03:00,
2013-06-18 04:08:00,78.3,77.4,29.96,SSE,155,0.0,0.0,97,0.00,,---,0.00,VWS V14.01,2013-06-18 08:08:00,
2013-06-18 04:13:00,78.1,77.2,29.96,SSE,155,0.0,0.0,97,0.00,,---,0.00,VWS V14.01,2013-06-18 08:13:00,
2013-06-18 04:18:00,78.1,77.2,29.96,SSE,155,0.0,0.0,97,0.00,,---,0.00,VWS V14.01,2013-06-18 08:18:00,
2013-06-18 04:23:00,77.9,77.3,29.96,SSE,155,0.0,0.0,98,0.00,,---,0.00,VWS V14.01,2013-06-18 08:23:00,
2013-06-18 04:28:00,77.9,77.3,29.96,SSE,155,0.0,0.0,98,0.00,,---,0.00,VWS V14.01,2013-06-18 08:28:00,
2013-06-18 04:33:00,77.9,77.3,29.96,SSE,155,0.0,0.0,98,0.00,,---,0.00,VWS V14.01,2013-06-18 08:33:00,
2013-06-18 04:38:00,77.9,77.3,29.96,SSE,155,0.0,0.0,98,0.00,,---,0.00,VWS V14.01,2013-06-18 08:38:00,
2013-06-18 04:43:00,77.9,77.3,29.96,SSE,155,0.0,0.0,98,0.00,,---,0.00,VWS V14.01,2013-06-18 08:43:00,
2013-06-18 04:48:00,77.7,77.1,29.96,SSE,155,0.0,0.0,98,0.00,,---,0.00,VWS V14.01,2013-06-18 08:48:00,
2013-06-18 04:53:00,77.9,77.3,29.96,SSE,155,0.0,0.0,98,0.00,,---,0.00,VWS V14.01,2013-06-18 08:53:00,
2013-06-18 04:58:00,77.9,77.3,29.96,SSE,155,0.0,0.0,98,0.00,,---,0.00,VWS V14.01,2013-06-18 08:58:00,
2013-06-18 05:04:00,77.7,77.4,29.96,SSE,155,0.0,0.0,99,0.00,,---,0.00,VWS V14.01,2013-06-18 09:04:00,
2013-06-18 05:09:00,77.7,77.4,29.96,SSE,155,0.0,0.0,99,0.00,,---,0.00,VWS V14.01,2013-06-18 09:09:00,
2013-06-18 05:14:00,77.7,77.4,29.96,SSE,155,0.0,0.0,99,0.00,,---,0.00,VWS V14.01,2013-06-18 09:14:00,
2013-06-18 05:19:00,77.9,77.6,29.96,SSE,155,0.0,0.0,99,0.00,,---,0.00,VWS V14.01,2013-06-18 09:19:00,
2013-06-18 05:24:00,77.7,77.4,29.96,SSE,155,0.0,0.0,99,0.00,,---,0.00,VWS V14.01,2013-06-18 09:24:00,
2013-06-18 05:29:00,77.7,77.4,29.96,SSE,155,0.0,0.0,99,0.00,,---,0.00,VWS V14.01,2013-06-18 09:29:00,
2013-06-18 05:34:00,77.6,77.3,29.95,SSE,155,0.0,0.0,99,0.00,,---,0.00,VWS V14.01,2013-06-18 09:34:00,
2013-06-18 05:39:00,77.6,77.3,29.95,SSE,155,0.0,0.0,99,0.00,,---,0.00,VWS V14.01,2013-06-18 09:39:00,
2013-06-18 05:44:00,77.6,77.3,29.95,SSE,155,0.0,0.0,99,0.00,,---,0.00,VWS V14.01,2013-06-18 09:44:00,
2013-06-18 05:49:00,77.6,77.6,29.96,SSE,155,0.0,0.0,100,0.00,,---,0.00,VWS V14.01,2013-06-18 09:49:00,
2013-06-18 05:54:00,77.6,77.6,29.96,SSE,155,0.0,0.0,100,0.00,,---,0.00,VWS V14.01,2013-06-18 09:54:00,
2013-06-18 05:59:00,77.6,77.6,29.96,SSE,155,0.0,0.0,100,0.00,,---,0.00,VWS V14.01,2013-06-18 09:59:00,
2013-06-18 06:04:00,77.6,77.6,29.96,SSE,155,0.0,0.0,100,0.00,,---,0.00,VWS V14.01,2013-06-18 10:04:00,
2013-06-18 06:09:00,77.6,77.6,29.96,SSE,155,0.0,0.0,100,0.00,,---,0.00,VWS V14.01,2013-06-18 10:09:00,
2013-06-18 06:14:00,77.6,77.6,29.96,SSE,155,0.0,0.0,100,0.00,,---,0.00,VWS V14.01,2013-06-18 10:14:00,
2013-06-18 06:19:00,77.6,77.6,29.95,SSE,155,0.0,0.0,100,0.00,,---,0.00,VWS V14.01,2013-06-18 10:19:00,
2013-06-18 06:24:00,77.6,77.6,29.95,SSE,155,0.0,0.0,100,0.00,,---,0.00,VWS V14.01,2013-06-18 10:24:00,
2013-06-18 06:29:00,77.6,77.6,29.95,SSE,155,0.0,0.0,100,0.00,,---,0.00,VWS V14.01,2013-06-18 10:29:00,
2013-06-18 06:34:00,77.6,77.6,29.95,SSE,155,0.0,0.0,100,0.00,,---,0.00,VWS V14.01,2013-06-18 10:34:00,
2013-06-18 06:39:00,77.4,77.4,29.95,SSE,155,0.0,0.0,100,0.00,,---,0.00,VWS V14.01,2013-06-18 10:39:00,
2013-06-18 06:44:00,77.4,77.4,29.95,SSE,155,0.0,0.0,100,0.00,,---,0.00,VWS V14.01,2013-06-18 10:44:00,
2013-06-18 06:49:00,77.4,77.4,29.95,SSE,155,0.0,0.0,100,0.00,,---,0.00,VWS V14.01,2013-06-18 10:49:00,
2013-06-18 06:55:00,77.4,77.4,29.95,SSE,155,0.0,0.0,100,0.00,,---,0.00,VWS V14.01,2013-06-18 10:55:00,
2013-06-18 07:00:00,77.6,77.6,29.95,SSE,155,0.0,0.0,100,0.00,,---,0.00,VWS V14.01,2013-06-18 11:00:00,
2013-06-18 07:05:00,77.6,77.6,29.96,SSE,155,0.0,0.0,100,0.00,,---,0.00,VWS V14.01,2013-06-18 11:05:00,
2013-06-18 07:10:00,77.7,77.7,29.96,SSE,155,0.0,0.0,100,0.00,,---,0.00,VWS V14.01,2013-06-18 11:10:00,
2013-06-18 07:15:00,78.1,78.1,29.96,SSE,155,0.0,0.0,100,0.00,,---,0.00,VWS V14.01,2013-06-18 11:15:00,
2013-06-18 07:20:00,78.3,78.3,29.97,SSE,155,0.0,0.0,100,0.00,,---,0.00,VWS V14.01,2013-06-18 11:20:00,
2013-06-18 07:25:00,78.5,78.5,29.97,SSE,155,0.0,0.0,100,0.00,,---,0.00,VWS V14.01,2013-06-18 11:25:00,
2013-06-18 07:30:00,78.8,78.8,29.97,SSE,155,0.0,0.0,100,0.00,,---,0.00,VWS V14.01,2013-06-18 11:30:00,
2013-06-18 07:35:00,79.0,79.0,29.97,SSE,155,0.0,1.0,100,0.00,,---,0.00,VWS V14.01,2013-06-18 11:35:00,
2013-06-18 07:40:00,79.4,79.4,29.97,SSE,155,0.0,1.0,100,0.00,,---,0.00,VWS V14.01,2013-06-18 11:40:00,
2013-06-18 07:45:00,79.8,79.5,29.97,SSE,155,0.0,1.0,99,0.00,,---,0.00,VWS V14.01,2013-06-18 11:45:00,
2013-06-18 07:50:00,80.1,79.8,29.97,SSE,155,1.0,1.0,99,0.00,,---,0.00,VWS V14.01,2013-06-18 11:50:00,
2013-06-18 07:55:00,80.5,79.6,29.97,SSE,155,0.0,2.0,97,0.00,,---,0.00,VWS V14.01,2013-06-18 11:55:00,
2013-06-18 08:00:00,81.1,79.9,29.97,SSE,155,0.0,2.0,96,0.00,,---,0.00,VWS V14.01,2013-06-18 12:00:00,
2013-06-18 08:05:00,81.4,79.5,29.97,SSE,155,0.0,5.0,94,0.00,,---,0.00,VWS V14.01,2013-06-18 12:05:00,
2013-06-18 08:10:00,81.8,78.9,29.97,SSE,155,3.0,5.0,91,0.00,,---,0.00,VWS V14.01,2013-06-18 12:10:00,
2013-06-18 08:15:00,82.2,78.6,29.97,SSE,155,2.0,5.0,89,0.00,,---,0.00,VWS V14.01,2013-06-18 12:15:00,
2013-06-18 08:20:00,82.4,78.1,29.99,SSE,157,0.0,5.0,87,0.00,,---,0.00,VWS V14.01,2013-06-18 12:20:00,
2013-06-18 08:25:00,82.6,78.3,29.99,SSE,157,0.0,5.0,87,0.00,,---,0.00,VWS V14.01,2013-06-18 12:25:00,
2013-06-18 08:30:00,82.8,78.2,29.99,SSE,157,1.0,5.0,86,0.00,,---,0.00,VWS V14.01,2013-06-18 12:30:00,
2013-06-18 08:35:00,82.8,77.8,29.99,SSE,157,0.0,0.0,85,0.00,,---,0.00,VWS V14.01,2013-06-18 12:35:00,
2013-06-18 08:41:00,82.8,77.8,29.99,SSE,157,0.0,1.0,85,0.00,,---,0.00,VWS V14.01,2013-06-18 12:41:00,
2013-06-18 08:46:00,83.0,77.7,29.99,SSE,155,1.0,3.0,84,0.00,,---,0.00,VWS V14.01,2013-06-18 12:46:00,
2013-06-18 08:51:00,83.2,77.5,30.00,SSE,155,2.0,3.0,83,0.00,,---,0.00,VWS V14.01,2013-06-18 12:51:00,
2013-06-18 08:56:00,83.4,77.3,30.00,SSE,155,0.0,5.0,82,0.00,,---,0.00,VWS V14.01,2013-06-18 12:56:00,
2013-06-18 09:01:00,83.6,77.2,30.00,SSE,155,1.0,5.0,81,0.00,,---,0.00,VWS V14.01,2013-06-18 13:01:00,
2013-06-18 09:06:00,83.8,77.3,30.00,SSE,155,1.0,2.0,81,0.00,,---,0.00,VWS V14.01,2013-06-18 13:06:00,
2013-06-18 09:11:00,84.3,76.7,30.00,SSE,155,1.0,4.0,78,0.00,,---,0.00,VWS V14.01,2013-06-18 13:11:00,
2013-06-18 09:16:00,84.5,76.5,30.00,SSE,155,0.0,4.0,77,0.00,,---,0.00,VWS V14.01,2013-06-18 13:16:00,
2013-06-18 09:21:00,84.7,76.3,30.00,SSE,155,3.0,4.0,76,0.00,,---,0.00,VWS V14.01,2013-06-18 13:21:00,
2013-06-18 09:26:00,85.1,76.3,30.00,SSE,155,0.0,4.0,75,0.00,,---,0.00,VWS V14.01,2013-06-18 13:26:00,
2013-06-18 09:31:00,85.3,75.7,30.00,SSE,157,1.0,4.0,73,0.00,,---,0.00,VWS V14.01,2013-06-18 13:31:00,
2013-06-18 09:36:00,85.5,75.4,30.00,SSE,157,0.0,0.0,72,0.00,,---,0.00,VWS V14.01,2013-06-18 13:36:00,
2013-06-18 09:41:00,85.9,75.4,30.00,SSE,156,4.0,4.0,71,0.00,,---,0.00,VWS V14.01,2013-06-18 13:41:00,
2013-06-18 09:46:00,86.3,74.9,30.00,SSE,149,5.0,5.0,69,0.00,,---,0.00,VWS V14.01,2013-06-18 13:46:00,
2013-06-18 09:51:00,87.0,75.2,30.00,SSE,149,3.0,5.0,68,0.00,,---,0.00,VWS V14.01,2013-06-18 13:51:00,
2013-06-18 09:56:00,87.6,75.3,30.00,SSE,149,0.0,5.0,67,0.00,,---,0.00,VWS V14.01,2013-06-18 13:56:00,
2013-06-18 10:01:00,88.0,74.8,30.00,SE,146,0.0,5.0,65,0.00,,---,0.00,VWS V14.01,2013-06-18 14:01:00,
2013-06-18 10:06:00,88.6,74.9,30.00,SE,146,0.0,3.0,64,0.00,,---,0.00,VWS V14.01,2013-06-18 14:06:00,
2013-06-18 10:11:00,89.0,75.7,30.00,SE,146,0.0,3.0,65,0.00,,---,0.00,VWS V14.01,2013-06-18 14:11:00,
2013-06-18 10:16:00,89.0,75.7,30.00,SE,146,2.0,3.0,65,0.00,,---,0.00,VWS V14.01,2013-06-18 14:16:00,
2013-06-18 10:21:00,89.0,76.2,30.00,SE,136,1.0,4.0,66,0.00,,---,0.00,VWS V14.01,2013-06-18 14:21:00,
2013-06-18 10:26:00,89.5,76.7,30.00,SE,135,2.0,4.0,66,0.00,,---,0.00,VWS V14.01,2013-06-18 14:26:00,
2013-06-18 10:32:00,89.9,75.6,30.00,SE,131,0.0,4.0,63,0.00,,---,0.00,VWS V14.01,2013-06-18 14:32:00,
2013-06-18 10:37:00,90.1,75.3,30.00,ESE,119,0.0,5.0,62,0.00,,---,0.00,VWS V14.01,2013-06-18 14:37:00,
2013-06-18 10:42:00,90.5,75.2,30.00,ESE,117,2.0,5.0,61,0.00,,---,0.00,VWS V14.01,2013-06-18 14:42:00,
2013-06-18 10:47:00,90.7,74.9,30.00,ESE,105,2.0,6.0,60,0.00,,---,0.00,VWS V14.01,2013-06-18 14:47:00,
2013-06-18 10:52:00,91.2,74.9,30.00,ESE,105,1.0,6.0,59,0.00,,---,0.00,VWS V14.01,2013-06-18 14:52:00,
2013-06-18 10:57:00,91.4,75.6,30.00,ESE,108,3.0,6.0,60,0.00,,---,0.00,VWS V14.01,2013-06-18 14:57:00,
2013-06-18 11:02:00,91.6,74.7,30.00,ESE,111,4.0,6.0,58,0.00,,---,0.00,VWS V14.01,2013-06-18 15:02:00,
2013-06-18 11:07:00,91.6,74.7,30.00,ESE,111,4.0,4.0,58,0.00,,---,0.00,VWS V14.01,2013-06-18 15:07:00,
2013-06-18 11:12:00,91.8,74.9,30.00,ESE,113,0.0,5.0,58,0.00,,---,0.00,VWS V14.01,2013-06-18 15:12:00,
2013-06-18 11:17:00,91.4,74.6,30.00,ESE,114,2.0,5.0,58,0.00,,---,0.00,VWS V14.01,2013-06-18 15:17:00,
2013-06-18 11:22:00,91.2,74.4,30.00,ESE,113,0.0,5.0,58,0.00,,---,0.00,VWS V14.01,2013-06-18 15:22:00,
2013-06-18 11:27:00,91.0,74.7,30.00,ESE,113,3.0,5.0,59,0.00,,---,0.00,VWS V14.01,2013-06-18 15:27:00,
2013-06-18 11:32:00,91.0,75.2,30.00,ESE,114,3.0,5.0,60,0.00,,---,0.00,VWS V14.01,2013-06-18 15:32:00,
2013-06-18 11:37:00,90.7,75.4,30.00,ESE,114,1.0,4.0,61,0.00,,---,0.00,VWS V14.01,2013-06-18 15:37:00,
2013-06-18 11:42:00,90.5,74.7,30.00,ESE,117,3.0,6.0,60,0.00,,---,0.00,VWS V14.01,2013-06-18 15:42:00,
2013-06-18 11:47:00,90.3,75.0,30.00,ESE,119,1.0,6.0,61,0.00,,---,0.00,VWS V14.01,2013-06-18 15:47:00,
2013-06-18 11:52:00,90.3,75.0,30.00,ESE,118,2.0,6.0,61,0.00,,---,0.00,VWS V14.01,2013-06-18 15:52:00,
2013-06-18 11:57:00,90.7,74.9,30.00,ESE,118,5.0,7.0,60,0.00,,---,0.00,VWS V14.01,2013-06-18 15:57:00,
2013-06-18 12:02:00,91.2,75.4,29.99,ESE,118,0.0,7.0,60,0.00,,---,0.00,VWS V14.01,2013-06-18 16:02:00,
2013-06-18 12:07:00,91.4,75.6,29.99,ESE,119,2.0,4.0,60,0.00,,---,0.00,VWS V14.01,2013-06-18 16:07:00,
2013-06-18 12:12:00,91.6,75.8,29.99,ESE,119,3.0,10.0,60,0.00,,---,0.00,VWS V14.01,2013-06-18 16:12:00,
2013-06-18 12:18:00,92.1,76.2,29.99,ESE,123,4.0,10.0,60,0.00,,---,0.00,VWS V14.01,2013-06-18 16:18:00,
2013-06-18 12:23:00,92.3,75.9,29.99,SE,135,3.0,10.0,59,0.00,,---,0.00,VWS V14.01,2013-06-18 16:23:00,
2013-06-18 12:28:00,92.3,76.4,29.99,SE,136,1.0,12.0,60,0.00,,---,0.00,VWS V14.01,2013-06-18 16:28:00,
2013-06-18 12:33:00,92.3,76.4,29.99,ESE,122,5.0,12.0,60,0.00,,---,0.00,VWS V14.01,2013-06-18 16:33:00,
2013-06-18 12:38:00,92.3,75.9,29.99,ESE,119,6.0,6.0,59,0.00,,---,0.00,VWS V14.01,2013-06-18 16:38:00,
2013-06-18 12:43:00,92.3,76.4,29.99,East,101,6.0,10.0,60,0.00,,---,0.00,VWS V14.01,2013-06-18 16:43:00,
2013-06-18 12:48:00,92.1,76.2,29.99,ESE,105,4.0,10.0,60,0.00,,---,0.00,VWS V14.01,2013-06-18 16:48:00,
2013-06-18 12:53:00,92.1,77.2,29.99,East,99,6.0,10.0,62,0.00,,---,0.00,VWS V14.01,2013-06-18 16:53:00,
2013-06-18 12:58:00,92.1,75.7,29.99,ESE,107,3.0,10.0,59,0.00,,---,0.00,VWS V14.01,2013-06-18 16:58:00,
2013-06-18 13:03:00,92.3,76.4,29.99,ESE,105,4.0,10.0,60,0.00,,---,0.00,VWS V14.01,2013-06-18 17:03:00,
2013-06-18 13:08:00,92.7,76.8,29.99,ESE,117,5.0,7.0,60,0.00,,---,0.00,VWS V14.01,2013-06-18 17:08:00,
2013-06-18 13:13:00,92.7,76.3,29.99,ESE,123,3.0,8.0,59,0.00,,---,0.00,VWS V14.01,2013-06-18 17:13:00,
2013-06-18 13:18:00,92.9,75.9,29.98,ESE,112,1.0,9.0,58,0.00,,---,0.00,VWS V14.01,2013-06-18 17:18:00,
2013-06-18 13:23:00,93.2,75.7,29.98,ESE,113,4.0,9.0,57,0.00,,---,0.00,VWS V14.01,2013-06-18 17:23:00,
2013-06-18 13:28:00,93.6,75.0,29.98,ESE,112,5.0,9.0,55,0.00,,---,0.00,VWS V14.01,2013-06-18 17:28:00,
2013-06-18 13:33:00,93.4,74.8,29.97,ESE,113,0.0,9.0,55,0.00,,---,0.00,VWS V14.01,2013-06-18 17:33:00,
2013-06-18 13:38:00,93.4,75.4,29.97,South,173,4.0,7.0,56,0.00,,---,0.00,VWS V14.01,2013-06-18 17:38:00,
2013-06-18 13:43:00,93.4,75.4,29.97,ESE,122,2.0,11.0,56,0.00,,---,0.00,VWS V14.01,2013-06-18 17:43:00,
2013-06-18 13:48:00,93.4,75.9,29.97,ESE,117,6.0,11.0,57,0.00,,---,0.00,VWS V14.01,2013-06-18 17:48:00,
2013-06-18 13:53:00,93.6,75.0,29.97,ESE,105,1.0,11.0,55,0.00,,---,0.00,VWS V14.01,2013-06-18 17:53:00,
2013-06-18 13:58:00,93.8,75.7,29.97,ESE,119,4.0,11.0,56,0.00,,---,0.00,VWS V14.01,2013-06-18 17:58:00,
2013-06-18 14:03:00,94.0,75.9,29.97,ESE,105,1.0,11.0,56,0.00,,---,0.00,VWS V14.01,2013-06-18 18:03:00,
2013-06-18 14:09:00,94.5,75.3,29.97,ESE,108,3.0,5.0,54,0.00,,---,0.00,VWS V14.01,2013-06-18 18:09:00,
2013-06-18 14:14:00,93.8,74.7,29.97,ENE,76,3.0,9.0,54,0.00,,---,0.00,VWS V14.01,2013-06-18 18:14:00,
2013-06-18 14:19:00,93.6,75.0,29.97,SE,126,3.0,9.0,55,0.00,,---,0.00,VWS V14.01,2013-06-18 18:19:00,
2013-06-18 14:24:00,93.2,74.6,29.97,ESE,114,4.0,9.0,55,0.00,,---,0.00,VWS V14.01,2013-06-18 18:24:00,
2013-06-18 14:29:00,92.9,74.9,29.97,East,94,6.0,9.0,56,0.00,,---,0.00,VWS V14.01,2013-06-18 18:29:00,
2013-06-18 14:34:00,93.2,76.8,29.96,East,100,1.0,1.0,59,0.00,,---,0.00,VWS V14.01,2013-06-18 18:34:00,
2013-06-18 14:39:00,94.0,75.9,29.96,SE,128,2.0,5.0,56,0.00,,---,0.00,VWS V14.01,2013-06-18 18:39:00,
2013-06-18 14:44:00,94.3,75.1,29.96,East,87,5.0,7.0,54,0.00,,---,0.00,VWS V14.01,2013-06-18 18:44:00,
2013-06-18 14:49:00,94.0,75.9,29.96,East,86,5.0,11.0,56,0.00,,---,0.00,VWS V14.01,2013-06-18 18:49:00,
2013-06-18 14:54:00,93.2,76.2,29.96,East,101,9.0,11.0,58,0.00,,---,0.00,VWS V14.01,2013-06-18 18:54:00,
2013-06-18 14:59:00,92.9,76.5,29.96,ESE,115,5.0,11.0,59,0.00,,---,0.00,VWS V14.01,2013-06-18 18:59:00,
2013-06-18 15:04:00,92.7,76.8,29.96,ESE,110,3.0,5.0,60,0.00,,---,0.00,VWS V14.01,2013-06-18 19:04:00,
2013-06-18 15:09:00,92.3,75.9,29.96,SE,135,4.0,9.0,59,0.00,,---,0.00,VWS V14.01,2013-06-18 19:09:00,
2013-06-18 15:14:00,92.3,76.4,29.96,ESE,109,4.0,9.0,60,0.00,,---,0.00,VWS V14.01,2013-06-18 19:14:00,
2013-06-18 15:19:00,92.3,76.4,29.95,East,94,4.0,9.0,60,0.00,,---,0.00,VWS V14.01,2013-06-18 19:19:00,
2013-06-18 15:24:00,92.7,76.3,29.95,ESE,106,3.0,9.0,59,0.00,,---,0.00,VWS V14.01,2013-06-18 19:24:00,
2013-06-18 15:29:00,93.4,76.4,29.95,SE,132,10.0,10.0,58,0.00,,---,0.00,VWS V14.01,2013-06-18 19:29:00,
2013-06-18 15:34:00,93.6,76.1,29.95,SE,130,2.0,2.0,57,0.00,,---,0.00,VWS V14.01,2013-06-18 19:34:00,
2013-06-18 15:39:00,93.8,76.8,29.95,SE,135,7.0,7.0,58,0.00,,---,0.00,VWS V14.01,2013-06-18 19:39:00,
2013-06-18 15:44:00,93.6,76.6,29.95,ESE,109,6.0,7.0,58,0.00,,---,0.00,VWS V14.01,2013-06-18 19:44:00,
2013-06-18 15:49:00,93.4,75.9,29.94,SE,135,2.0,9.0,57,0.00,,---,0.00,VWS V14.01,2013-06-18 19:49:00,
2013-06-18 15:55:00,93.4,75.9,29.94,ESE,108,7.0,9.0,57,0.00,,---,0.00,VWS V14.01,2013-06-18 19:55:00,
2013-06-18 16:00:00,93.4,75.9,29.94,SE,136,2.0,9.0,57,0.00,,---,0.00,VWS V14.01,2013-06-18 20:00:00,
2013-06-18 16:05:00,93.4,75.4,29.94,East,89,10.0,10.0,56,0.00,,---,0.00,VWS V14.01,2013-06-18 20:05:00,
2013-06-18 16:10:00,93.2,76.2,29.94,ESE,116,1.0,10.0,58,0.00,,---,0.00,VWS V14.01,2013-06-18 20:10:00,
2013-06-18 16:15:00,93.6,75.6,29.94,ESE,120,3.0,10.0,56,0.00,,---,0.00,VWS V14.01,2013-06-18 20:15:00,
2013-06-18 16:20:00,93.6,75.6,29.94,East,89,4.0,10.0,56,0.00,,---,0.00,VWS V14.01,2013-06-18 20:20:00,
2013-06-18 16:25:00,93.2,76.2,29.94,ESE,105,10.0,11.0,58,0.00,,---,0.00,VWS V14.01,2013-06-18 20:25:00,
2013-06-18 16:30:00,92.5,76.1,29.94,East,98,4.0,11.0,59,0.00,,---,0.00,VWS V14.01,2013-06-18 20:30:00,
2013-06-18 16:35:00,91.8,75.9,29.94,East,94,1.0,3.0,60,0.00,,---,0.00,VWS V14.01,2013-06-18 20:35:00,
2013-06-18 16:40:00,91.8,76.4,29.94,ESE,102,0.0,10.0,61,0.00,,---,0.00,VWS V14.01,2013-06-18 20:40:00,
2013-06-18 16:45:00,92.3,76.4,29.94,ESE,106,0.0,11.0,60,0.00,,---,0.00,VWS V14.01,2013-06-18 20:45:00,
2013-06-18 16:50:00,92.5,75.1,29.93,ESE,109,4.0,11.0,57,0.00,,---,0.00,VWS V14.01,2013-06-18 20:50:00,
2013-06-18 16:55:00,92.5,75.6,29.93,East,95,4.0,11.0,58,0.00,,---,0.00,VWS V14.01,2013-06-18 20:55:00,
2013-06-18 17:00:00,92.1,75.7,29.93,ESE,112,9.0,12.0,59,0.00,,---,0.00,VWS V14.01,2013-06-18 21:00:00,
2013-06-18 17:05:00,91.6,75.8,29.93,ESE,116,7.0,8.0,60,0.00,,---,0.00,VWS V14.01,2013-06-18 21:05:00,
2013-06-18 17:10:00,91.2,75.4,29.93,SE,145,3.0,11.0,60,0.00,,---,0.00,VWS V14.01,2013-06-18 21:10:00,
2013-06-18 17:15:00,91.0,75.2,29.93,SE,138,9.0,11.0,60,0.00,,---,0.00,VWS V14.01,2013-06-18 21:15:00,
2013-06-18 17:20:00,91.0,75.2,29.92,East,99,4.0,11.0,60,0.00,,---,0.00,VWS V14.01,2013-06-18 21:20:00,
2013-06-18 17:25:00,91.0,75.7,29.92,SE,130,5.0,11.0,61,0.00,,---,0.00,VWS V14.01,2013-06-18 21:25:00,
2013-06-18 17:31:00,91.0,75.2,29.92,SE,126,3.0,11.0,60,0.00,,---,0.00,VWS V14.01,2013-06-18 21:31:00,
2013-06-18 17:36:00,91.2,75.4,29.92,ESE,106,4.0,6.0,60,0.00,,---,0.00,VWS V14.01,2013-06-18 21:36:00,
2013-06-18 17:41:00,91.0,75.2,29.92,East,90,4.0,9.0,60,0.00,,---,0.00,VWS V14.01,2013-06-18 21:41:00,
2013-06-18 17:46:00,91.0,75.2,29.92,ENE,78,5.0,9.0,60,0.00,,---,0.00,VWS V14.01,2013-06-18 21:46:00,
2013-06-18 17:51:00,90.7,74.9,29.93,ESE,116,2.0,11.0,60,0.00,,---,0.00,VWS V14.01,2013-06-18 21:51:00,
2013-06-18 17:56:00,90.5,74.7,29.93,East,95,5.0,11.0,60,0.00,,---,0.00,VWS V14.01,2013-06-18 21:56:00,
2013-06-18 18:01:00,90.1,75.3,29.93,ESE,122,13.0,13.0,62,0.00,,---,0.00,VWS V14.01,2013-06-18 22:01:00,
2013-06-18 18:06:00,89.7,75.9,29.92,SE,124,3.0,6.0,64,0.00,,---,0.00,VWS V14.01,2013-06-18 22:06:00,
2013-06-18 18:11:00,89.5,75.7,29.92,ESE,103,6.0,10.0,64,0.00,,---,0.00,VWS V14.01,2013-06-18 22:11:00,
2013-06-18 18:16:00,89.0,76.2,29.92,SE,126,4.0,12.0,66,0.00,,---,0.00,VWS V14.01,2013-06-18 22:16:00,
2013-06-18 18:21:00,88.8,76.0,29.92,ESE,113,3.0,12.0,66,0.00,,---,0.00,VWS V14.01,2013-06-18 22:21:00,
2013-06-18 18:26:00,89.3,76.9,29.92,ESE,113,0.0,12.0,67,0.00,,---,0.00,VWS V14.01,2013-06-18 22:26:00,
2013-06-18 18:31:00,89.5,76.2,29.92,ESE,109,5.0,12.0,65,0.00,,---,0.00,VWS V14.01,2013-06-18 22:31:00,
2013-06-18 18:36:00,89.3,76.5,29.92,South,176,2.0,10.0,66,0.00,,---,0.00,VWS V14.01,2013-06-18 22:36:00,
2013-06-18 18:41:00,89.3,76.0,29.92,SE,138,6.0,10.0,65,0.00,,---,0.00,VWS V14.01,2013-06-18 22:41:00,
2013-06-18 18:46:00,89.3,76.5,29.92,SSE,150,0.0,10.0,66,0.00,,---,0.00,VWS V14.01,2013-06-18 22:46:00,
2013-06-18 18:51:00,89.3,76.0,29.92,SE,125,2.0,10.0,65,0.00,,---,0.00,VWS V14.01,2013-06-18 22:51:00,
2013-06-18 18:56:00,88.8,76.0,29.92,ESE,109,3.0,10.0,66,0.00,,---,0.00,VWS V14.01,2013-06-18 22:56:00,
2013-06-18 19:01:00,88.2,75.9,29.92,SE,134,6.0,11.0,67,0.00,,---,0.00,VWS V14.01,2013-06-18 23:01:00,
2013-06-18 19:06:00,87.8,75.9,29.93,ESE,112,3.0,5.0,68,0.00,,---,0.00,VWS V14.01,2013-06-18 23:06:00,
2013-06-18 19:12:00,87.4,76.0,29.93,SE,130,2.0,5.0,69,0.00,,---,0.00,VWS V14.01,2013-06-18 23:12:00,
2013-06-18 19:17:00,87.0,75.6,29.93,SE,134,10.0,10.0,69,0.00,,---,0.00,VWS V14.01,2013-06-18 23:17:00,
2013-06-18 19:22:00,86.5,75.6,29.93,SE,139,2.0,10.0,70,0.00,,---,0.00,VWS V14.01,2013-06-18 23:22:00,
2013-06-18 19:27:00,86.1,75.6,29.93,SE,138,5.0,10.0,71,0.00,,---,0.00,VWS V14.01,2013-06-18 23:27:00,
2013-06-18 19:32:00,85.9,75.8,29.93,ESE,109,4.0,10.0,72,0.00,,---,0.00,VWS V14.01,2013-06-18 23:32:00,
2013-06-18 19:37:00,85.5,75.9,29.94,ESE,105,3.0,6.0,73,0.00,,---,0.00,VWS V14.01,2013-06-18 23:37:00,
2013-06-18 19:42:00,85.3,76.1,29.94,ESE,117,7.0,11.0,74,0.00,,---,0.00,VWS V14.01,2013-06-18 23:42:00,
2013-06-18 19:47:00,84.9,76.1,29.94,SE,128,3.0,11.0,75,0.00,,---,0.00,VWS V14.01,2013-06-18 23:47:00,
2013-06-18 19:52:00,84.9,76.1,29.94,SE,128,2.0,11.0,75,0.00,,---,0.00,VWS V14.01,2013-06-18 23:52:00,
2013-06-18 19:57:00,84.7,75.9,29.94,SE,126,0.0,11.0,75,0.00,,---,0.00,VWS V14.01,2013-06-18 23:57:00,
2013-06-18 20:02:00,84.5,76.1,29.94,SE,127,3.0,11.0,76,0.00,,---,0.00,VWS V14.01,2013-06-19 00:02:00,
2013-06-18 20:07:00,84.5,76.1,29.94,SE,128,0.0,5.0,76,0.00,,---,0.00,VWS V14.01,2013-06-19 00:07:00,
2013-06-18 20:12:00,84.3,75.9,29.94,SE,128,0.0,5.0,76,0.00,,---,0.00,VWS V14.01,2013-06-19 00:12:00,
2013-06-18 20:17:00,84.1,75.7,29.94,SE,126,2.0,5.0,76,0.00,,---,0.00,VWS V14.01,2013-06-19 00:17:00,
2013-06-18 20:22:00,84.1,75.7,29.94,SE,126,1.0,5.0,76,0.00,,---,0.00,VWS V14.01,2013-06-19 00:22:00,
2013-06-18 20:27:00,84.0,75.6,29.94,SE,128,0.0,5.0,76,0.00,,---,0.00,VWS V14.01,2013-06-19 00:27:00,
2013-06-18 20:33:00,84.0,75.6,29.95,SE,129,0.0,5.0,76,0.00,,---,0.00,VWS V14.01,2013-06-19 00:33:00,
2013-06-18 20:38:00,83.8,75.8,29.95,SE,129,0.0,5.0,77,0.00,,---,0.00,VWS V14.01,2013-06-19 00:38:00,
2013-06-18 20:43:00,83.8,75.8,29.95,SE,132,2.0,5.0,77,0.00,,---,0.00,VWS V14.01,2013-06-19 00:43:00,
2013-06-18 20:48:00,83.8,75.8,29.95,SE,132,3.0,5.0,77,0.00,,---,0.00,VWS V14.01,2013-06-19 00:48:00,
2013-06-18 20:53:00,83.6,75.2,29.95,SE,132,0.0,5.0,76,0.00,,---,0.00,VWS V14.01,2013-06-19 00:53:00,
2013-06-18 20:58:00,83.6,75.2,29.95,SE,132,0.0,5.0,76,0.00,,---,0.00,VWS V14.01,2013-06-19 00:58:00,
2013-06-18 21:03:00,83.6,75.2,29.96,SE,132,0.0,5.0,76,0.00,,---,0.00,VWS V14.01,2013-06-19 01:03:00,
2013-06-18 21:08:00,83.6,75.6,29.96,SE,132,0.0,2.0,77,0.00,,---,0.00,VWS V14.01,2013-06-19 01:08:00,
2013-06-18 21:13:00,83.4,75.4,29.96,SE,132,1.0,2.0,77,0.00,,---,0.00,VWS V14.01,2013-06-19 01:13:00,
2013-06-18 21:18:00,83.4,75.4,29.96,SE,132,0.0,2.0,77,0.00,,---,0.00,VWS V14.01,2013-06-19 01:18:00,
2013-06-18 21:23:00,83.4,75.4,29.96,SE,132,0.0,2.0,77,0.00,,---,0.00,VWS V14.01,2013-06-19 01:23:00,
2013-06-18 21:28:00,83.2,75.2,29.96,SE,132,1.0,2.0,77,0.00,,---,0.00,VWS V14.01,2013-06-19 01:28:00,
2013-06-18 21:33:00,83.2,75.2,29.96,SE,132,1.0,2.0,77,0.00,,---,0.00,VWS V14.01,2013-06-19 01:33:00,
2013-06-18 21:38:00,83.2,75.6,29.96,SE,132,0.0,3.0,78,0.00,,---,0.00,VWS V14.01,2013-06-19 01:38:00,
2013-06-18 21:43:00,83.2,75.6,29.96,SE,133,0.0,3.0,78,0.00,,---,0.00,VWS V14.01,2013-06-19 01:43:00,
2013-06-18 21:48:00,83.2,75.6,29.96,SE,133,0.0,3.0,78,0.00,,---,0.00,VWS V14.01,2013-06-19 01:48:00,
2013-06-18 21:53:00,83.0,75.8,29.96,SE,133,0.0,3.0,79,0.00,,---,0.00,VWS V14.01,2013-06-19 01:53:00,
2013-06-18 21:58:00,83.0,75.8,29.96,SE,133,0.0,3.0,79,0.00,,---,0.00,VWS V14.01,2013-06-19 01:58:00,
2013-06-18 22:03:00,83.0,75.8,29.96,SE,133,0.0,7.0,79,0.00,,---,0.00,VWS V14.01,2013-06-19 02:03:00,
2013-06-18 22:08:00,83.0,76.2,29.96,SE,133,0.0,2.0,80,0.00,,---,0.00,VWS V14.01,2013-06-19 02:08:00,
2013-06-18 22:14:00,82.8,76.0,29.96,SE,133,0.0,4.0,80,0.00,,---,0.00,VWS V14.01,2013-06-19 02:14:00,
2013-06-18 22:19:00,82.8,76.0,29.96,SE,133,5.0,5.0,80,0.00,,---,0.00,VWS V14.01,2013-06-19 02:19:00,
2013-06-18 22:24:00,82.8,76.4,29.96,SE,130,2.0,5.0,81,0.00,,---,0.00,VWS V14.01,2013-06-19 02:24:00,
2013-06-18 22:29:00,82.8,76.4,29.96,SE,130,0.0,5.0,81,0.00,,---,0.00,VWS V14.01,2013-06-19 02:29:00,
2013-06-18 22:34:00,82.6,76.2,29.96,SE,130,0.0,2.0,81,0.00,,---,0.00,VWS V14.01,2013-06-19 02:34:00,
2013-06-18 22:39:00,82.6,76.2,29.96,SE,131,0.0,4.0,81,0.00,,---,0.00,VWS V14.01,2013-06-19 02:39:00,
2013-06-18 22:44:00,82.6,76.6,29.96,SE,131,0.0,4.0,82,0.00,,---,0.00,VWS V14.01,2013-06-19 02:44:00,
2013-06-18 22:49:00,82.6,76.6,29.96,SE,131,0.0,4.0,82,0.00,,---,0.00,VWS V14.01,2013-06-19 02:49:00,
2013-06-18 22:54:00,82.6,76.6,29.96,SE,131,0.0,4.0,82,0.00,,---,0.00,VWS V14.01,2013-06-19 02:54:00,
2013-06-18 22:59:00,82.4,76.7,29.96,SE,131,0.0,4.0,83,0.00,,---,0.00,VWS V14.01,2013-06-19 02:59:00,
2013-06-18 23:04:00,82.4,76.7,29.97,SE,131,0.0,0.0,83,0.00,,---,0.00,VWS V14.01,2013-06-19 03:04:00,
2013-06-18 23:09:00,82.4,76.7,29.97,SE,131,3.0,3.0,83,0.00,,---,0.00,VWS V14.01,2013-06-19 03:09:00,
2013-06-18 23:14:00,82.4,76.7,29.97,SE,131,0.0,3.0,83,0.00,,---,0.00,VWS V14.01,2013-06-19 03:14:00,
2013-06-18 23:19:00,82.2,76.5,29.99,SE,131,0.0,3.0,83,0.00,,---,0.00,VWS V14.01,2013-06-19 03:19:00,
2013-06-18 23:24:00,82.2,76.5,29.99,SE,131,0.0,3.0,83,0.00,,---,0.00,VWS V14.01,2013-06-19 03:24:00,
2013-06-18 23:29:00,82.2,76.5,29.99,SE,131,0.0,3.0,83,0.00,,---,0.00,VWS V14.01,2013-06-19 03:29:00,
2013-06-18 23:34:00,82.0,76.7,29.99,SE,131,0.0,0.0,84,0.00,,---,0.00,VWS V14.01,2013-06-19 03:34:00,
2013-06-18 23:39:00,82.0,76.7,29.99,SE,131,2.0,2.0,84,0.00,,---,0.00,VWS V14.01,2013-06-19 03:39:00,
2013-06-18 23:44:00,82.0,76.7,29.99,SE,131,0.0,2.0,84,0.00,,---,0.00,VWS V14.01,2013-06-19 03:44:00,
2013-06-18 23:49:00,81.8,76.5,29.98,SE,131,0.0,2.0,84,0.00,,---,0.00,VWS V14.01,2013-06-19 03:49:00,
2013-06-18 23:54:00,81.8,76.5,29.98,SE,131,0.0,2.0,84,0.00,,---,0.00,VWS V14.01,2013-06-19 03:54:00,